Tracking 31028 objects as of 17-Jul-2025
HD Live streaming from Space Station
objects crossing your sky now

STARLINK-5748

Track STARLINK-5748 now!
10-day predictions
STARLINK-5748 is classified as:


NORAD ID: 55604
Int'l Code: 2023-020AM
Perigee: 565.4 km
Apogee: 567.1 km
Inclination: 43.0 °
Period: 95.8 minutes
Semi major axis: 6937 km
RCS: Unknown
Launch date: February 12, 2023
Source: United States (US)
Launch site: AIR FORCE EASTERN TEST RANGE (AFETR)
Your satellite tracking list
Your tracking list is empty




NASA's NSSDC Master Catalog

Two Line Element Set (TLE):
1 55604U 23020AM  25197.25109383  .00000083  00000-0  21232-4 0  9997
2 55604  43.0027 183.3284 0001199 275.7626  84.3080 15.02533294133657
Source of the keplerian elements: AFSPC